Regional Weather Roundup
Issued by NWS Upton, NY

Current Version | Previous Version | Graphics & Text | Print | Product List | Glossary Off
Versions: 1 2 3 4 5 6 7 8 9 10 11 12 13 14 15 16 17 18 19 20 21 22 23 24 25 26 27 28 29 30 31 32 33 34 35 36 37 38 39 40 41 42 43 44 45 46 47 48 49 50

541
ASUS41 KOKX 281705
RWROKX

REGIONAL WEATHER ROUNDUP
NATIONAL WEATHER SERVICE NEW YORK NY
100 PM EDT SAT MAY 28 2016

NOTE: "FAIR" INDICATES FEW OR NO CLOUDS BELOW 12,000 FEET WITH NO
SIGNIFICANT WEATHER AND/OR OBSTRUCTIONS TO VISIBILITY.

NYZ071-072-176-178-NJZ106-104-281800-
NEW YORK CITY METRO AREA


CITY           SKY/WX    TMP DP  RH WIND       PRES   REMARKS
CENTRAL PARK   SUNNY     89  65  44 VRB5      30.13F HX  91
LAGUARDIA APRT MOSUNNY   90  70  51 S9        30.10F HX  95
KENNEDY INTL   MOSUNNY   77  62  59 S10       30.13F
NEWARK/LIBERTY MOSUNNY   92  65  40 SW10      30.10F HX  94
BRNX BOT. GARD   N/A     90  66  45 S7        30.10F HX  92
TETERBORO      SUNNY     91  64  40 S8        30.08F HX  92
$$

NYZ177-179-078>081-281800-
LONG ISLAND NEW YORK

CITY           SKY/WX    TMP DP  RH WIND       PRES   REMARKS
FARMINGDALE    SUNNY     80  65  59 S10       30.13F
ISLIP          MOSUNNY   77  63  61 SW14      30.12F
SHIRLEY        SUNNY     76  63  64 S9        30.14F
RIVERHEAD        N/A     82  68  61 S2        30.11F
WESTHAMPTON    SUNNY     72  60  66 SW13      30.15F
EAST HAMPTON   FAIR      71  60  68 SW12G18   30.14S
MONTAUK POINT    N/A     70  61  73 SW8       30.14F
$$

NYZ052-065-067-281800-
HUDSON VALLEY

CITY           SKY/WX    TMP DP  RH WIND       PRES   REMARKS
WHITE PLAINS   MOSUNNY   89  66  46 VRB5      30.11F HX  91
NEWBURGH       MOSUNNY   86  70  58 W9        30.11F HX  90
MONTGOMERY     SUNNY     89  70  53 S8        30.08F HX  94
POUGHKEEPSIE   SUNNY     90  68  48 SW7       30.08F HX  94
ALBANY         PTSUNNY   88  62  41 W6        30.09F
$$

NJZ001-105-106-008-010-013-015-019>022-104-281800-
NEW JERSEY

CITY           SKY/WX    TMP DP  RH WIND       PRES   REMARKS
NEWARK/LIBERTY MOSUNNY   92  65  40 SW10      30.10F HX  94
TETERBORO      SUNNY     91  64  40 S8        30.08F HX  92
CALDWELL       SUNNY     90  66  45 S9        30.10F HX  92
MORRISTOWN     MOSUNNY   90  68  48 SW10      30.11F HX  93
SOMERVILLE     SUNNY     88  69  53 S7        30.09F HX  92
SUSSEX         MOSUNNY   89  65  44 SW6       30.11F HX  91
ANDOVER          N/A     88  66  48 MISG      30.12F HX  90
TRENTON        SUNNY     87  68  52 SW8       30.13S HX  90
MILLVILLE      SUNNY     83  65  54 SW7       30.17S
ATLANTIC CITY  SUNNY     84  66  54 S10       30.16S
WRIGHTSTOWN    NOT AVBL
TOMS RIVER     MOSUNNY   91  64  40 SW13      30.13F HX  93
BELMAR         MOSUNNY   89  67  47 VRB6      30.14F HX  92
$$

PAZ047>061-062-071-281800-
EASTERN PENNSYLVANIA

CITY           SKY/WX    TMP DP  RH WIND       PRES   REMARKS
PHILADELPHIA   SUNNY     85  66  53 SW9       30.15F
ALLENTOWN      SUNNY     88  67  49 S8        30.12F HX  91
SCRANTON       MOSUNNY   88  64  44 CALM      30.12F
$$

CTZ002-004>006-009-010-012-RIZ004-006-007-MAZ004-011-015-281800-
SOUTHERN NEW ENGLAND
 IN CT

CITY           SKY/WX    TMP DP  RH WIND       PRES   REMARKS
BRADLEY INTL   PTSUNNY   89  68  49 S8        30.07F HX  93
HARTFORD       SUNNY     91  68  46 S5        30.08F HX  95
DANBURY        SUNNY     87  66  49 W5        30.12F
WTRBRY/OXFORD  MOSUNNY   86  66  51 SW6       30.15F
BRIDGEPORT     SUNNY     83  65  54 SW10      30.10F
MERIDEN        SUNNY     88  67  49 S6        30.09F HX  91
NEW HAVEN      SUNNY     80  66  62 S9        30.11F
CHESTER        FAIR      82  66  57 VRB7      30.12F
GROTON         SUNNY     71  64  78 S6        30.11F
WILLIMANTIC    SUNNY     91  66  43 SW10      30.09F HX  93

 IN RI

CITY           SKY/WX    TMP DP  RH WIND       PRES   REMARKS
PROVIDENCE     MOSUNNY   80  63  55 SE12      30.10F
BLOCK ISLAND   SUNNY     66  59  78 SW23G29   30.14S
WESTERLY       SUNNY     77  59  53 S10       30.13F

 IN MA

CITY           SKY/WX    TMP DP  RH WIND       PRES   REMARKS
BOSTON         MOSUNNY   91  64  40 W8        30.05F HX  92
WORCESTER      NOT AVBL
WESTFIELD      SUNNY     89  69  51 S6        30.08F HX  93
PROVINCETOWN   SUNNY     76  62  62 SW14      30.09S
NANTUCKET      SUNNY     66  58  75 SW18      30.14S
$$

ANZ330-335-338-340-345-350-353-355-281800-
COASTAL MARINE OBSERVATIONS


STATION/POSITION TIME  SKY/WX   TEMP    WIND        PRES    VSBY  WAVE
                                AIR SEA DIR/SP/G                  HT/PER
                 (UTC)          (F)     (DEG/KT/KT) (MB)    (MI)  (FT/S)
NY HARB ENTRANCE 1550            62 59  190/ 14/ 14 1020.3          2/ 7
20S FIRE ISLAND  1550            61 59  210/ 14/ 16 1020.9          3/ 5
GREAT SOUTH BAY  1600            65 69  220/ 12/ 16   N/A
23 SSW MONTAUK P 1650            60 57  230/ 16/ 17 1020.4          3/ 5
15 E BARNEGAT LI 1622               59                N/A           3/ 4
HUDSON CANYON    1550            61 58              1022.3          2/ 5
KINGS POINT      1600            81 62              1019.7
EXECUTION ROCKS  NOT AVBL
CENTRAL LI SOUND NOT AVBL
EASTERN LI SOUND 1600            61 55  150/  4/  6   N/A
ROBBINS REEF     1600            81     150/  7/ 11 1019.4
$$


>>>>>>>>>>>>>>>>>>>>>>>>>>>> KEY <<<<<<<<<<<<<<<<<<<<<<<<<<<
>                                                          <
>     SKY/WX - SKY CONDITION/PRESENT WEATHER               <
>     TMP    - TEMPERATURE IN FAHRENHEIT                   <
>     DP     - DEWPOINT IN FAHRENHEIT                      <
>     RH     - RELATIVE HUMIDITY IN PERCENT                <
>     WIND   - DIRECTION AND SPEED IN MPH                  <
>     PRES   - MEAN SEA LEVEL PRESSURE IN INCHES OF HG     <
>     WCI    - WIND CHILL INDEX                            <
>     VSB    - VISIBILITY IN MILES                         <
>     HX     - HEAT INDEX                                  <
>     TC     - TEMPERATURE IN CELSIUS                      <
>     VRB    - VARIABLE WIND DIRECTION                     <
>                                                          <
>>>>>>>>>>>>>>>>>>>>>>>>>>>> KEY <<<<<<<<<<<<<<<<<<<<<<<<<<<






USA.gov is the U.S. government's official web portal to all federal, state and local government web resources and services.